Temperature
10 11 11 11 11 11 11 11 11 12 11 11 11 11 11 11 11 11 11 11 11 10 10 10 10 10 10 10 10 9 9 8 7 7 6 6 6 5 5 5 4 4 4
10 10 10 11 10 10 10 11 11 11 11 11 11 11 11 10 10 10 10 10 10 10 10 10 10 10 10 9 9 9 8 7 7 6 6 5 5 4 4 4 4 3 3
10 10 10 10 10 10 10 10 10 10 10 10 10 10 10 10 10 10 9 9 9 9 9 9 9 9 9 9 8 8 7 7 6 5 5 4 4 4 3 3 3 3 3
9 9 9 9 9 9 10 10 10 9 9 9 9 9 9 9 9 9 9 9 9 9 9 9 9 8 8 8 8 7 7 6 5 4 4 3 3 3 3 3 3 3 3
9 9 9 9 9 9 9 9 9 9 9 9 8 8 8 8 8 8 8 8 8 8 8 8 8 8 8 7 7 7 6 5 4 4 3 3 3 3 3 2 2 2 2
8 8 8 8 8 8 8 8 8 8 8 8 8 8 8 8 7 7 7 7 7 7 7 7 7 7 7 6 6 6 5 5 4 3 3 3 2 2 2 2 2 2 2
7 7 7 7 7 7 7 7 7 7 7 7 7 7 7 7 7 7 7 7 7 7 7 7 7 6 6 6 6 5 4 4 3 3 3 2 2 2 2 1 1 2 1
6 6 6 6 6 6 6 6 6 6 6 6 6 6 6 6 6 6 6 6 6 6 6 6 6 6 6 5 5 4 4 3 3 3 2 2 2 2 1 1 1 1 1
5 5 5 5 5 5 5 5 5 5 5 5 5 5 5 5 5 5 5 5 5 5 5 5 5 5 5 4 4 3 3 3 2 2 2 2 1 1 1 1 1 0 0
4 4 4 4 4 4 4 4 4 4 4 4 4 4 4 4 4 4 4 4 5 5 5 5 4 4 4 3 3 3 3 2 2 2 1 1 1 1 1 0 0 0 0
3 3 3 3 3 3 3 3 3 3 3 3 3 3 3 3 3 3 3 4 4 4 4 4 3 3 3 2 2 2 2 1 1 1 1 1 0 0 0 0 0 0 -0
2 2 2 2 2 2 2 2 2 2 2 2 2 2 2 2 2 2 3 3 3 3 3 3 3 2 2 2 1 1 1 0 0 0 0 0 0 -0 -0 -0 -0 -0 -0
1 1 1 1 1 1 1 1 1 1 1 1 1 1 1 1 2 2 2 2 2 2 2 2 2 1 1 1 1 0 -0 -0 -0 -0 -0 -0 -1 -1 -1 -1 -1 -1 -1
-0 -0 -0 -0 -0 -0 -0 -0 -0 -0 -0 -0 -0 -0 0 0 1 1 1 1 1 1 1 1 1 0 0 0 -0 -0 -1 -1 -1 -1 -1 -1 -1 -1 -1 -1 -1 -1 -1
-1 -1 -1 -1 -1 -1 -1 -1 -1 -1 -1 -1 -1 -1 -1 -1 -0 -0 -0 -0 0 0 0 -0 -0 -0 -0 -1 -1 -1 -1 -1 -1 -1 -2 -2 -2 -2 -2 -1 -1 -2 -1
-2 -2 -2 -2 -2 -3 -3 -2 -2 -2 -2 -2 -2 -2 -1 -1 -1 -1 -1 -1 -1 -1 -1 -1 -1 -1 -1 -1 -1 -1 -1 -1 -1 -2 -2 -2 -2 -2 -2 -2 -2 -2 -1
-3 -3 -3 -3 -3 -3 -3 -3 -3 -2 -2 -2 -2 -2 -2 -2 -2 -2 -1 -1 -1 -1 -1 -1 -1 -1 -1 -1 -1 -1 -1 -1 -1 -2 -2 -2 -2 -2 -2 -2 -2 -2 -2
-3 -3 -3 -4 -4 -4 -4 -4 -4 -4 -4 -3 -3 -3 -3 -3 -2 -2 -2 -2 -2 -2 -1 -1 -1 -1 -1 -1 -1 -1 -1 -2 -2 -2 -2 -2 -2 -3 -3 -2 -2 -2 -2
-4 -4 -4 -4 -4 -4 -5 -5 -5 -5 -5 -4 -4 -4 -4 -3 -3 -3 -3 -2 -2 -2 -2 -2 -2 -1 -1 -1 -1 -2 -2 -2 -2 -2 -2 -2 -2 -3 -2 -2 -2 -2 -3
-4 -4 -5 -5 -5 -5 -5 -5 -5 -5 -5 -5 -5 -5 -5 -4 -4 -4 -3 -3 -3 -3 -2 -2 -2 -2 -2 -2 -2 -2 -2 -2 -3 -3 -3 -3 -3 -3 -2 -3 -3 -3 -3
-5 -5 -5 -5 -6 -6 -6 -6 -6 -6 -6 -6 -6 -6 -5 -5 -5 -4 -4 -4 -3 -3 -3 -3 -2 -2 -2 -2 -2 -2 -2 -3 -3 -3 -3 -3 -3 -3 -3 -3 -3 -3 -3
-6 -6 -6 -6 -6 -6 -6 -6 -6 -6 -6 -6 -6 -6 -6 -6 -5 -5 -5 -4 -4 -4 -3 -3 -3 -3 -3 -2 -2 -3 -3 -3 -3 -3 -3 -3 -3 -3 -3 -3 -3 -3 -3
-6 -7 -7 -7 -7 -7 -7 -7 -7 -7 -7 -7 -7 -7 -6 -6 -6 -6 -5 -5 -5 -4 -4 -4 -3 -3 -3 -3 -3 -3 -3 -3 -3 -3 -3 -3 -3 -3 -3 -3 -3 -4 -4
-7 -7 -7 -7 -7 -7 -7 -7 -7 -7 -7 -7 -7 -7 -7 -7 -6 -6 -6 -6 -5 -5 -5 -4 -4 -4 -4 -3 -3 -3 -3 -3 -3 -3 -3 -3 -3 -4 -4 -4 -4 -4 -4
-8 -8 -8 -8 -8 -8 -8 -8 -8 -8 -8 -7 -7 -7 -7 -7 -7 -7 -6 -6 -6 -5 -5 -5 -5 -4 -4 -4 -4 -4 -4 -4 -4 -4 -4 -4 -4 -4 -4 -4 -4 -4 -5
-8 -8 -8 -8 -8 -8 -8 -8 -8 -8 -8 -8 -8 -8 -7 -7 -7 -7 -7 -6 -6 -6 -5 -5 -5 -5 -5 -5 -4 -4 -4 -4 -4 -4 -4 -4 -4 -4 -4 -5 -5 -5 -5
Wind_Speed
6 5 5 4 3 3 2 2 3 3 4 5 5 6 6 6 6 6 6 6 7 6 6 6 6 5 4 4 3 2 2 3 3 1 1 2 3 3 3 3 2 2 3
6 6 5 5 4 3 2 2 3 3 3 4 4 4 5 5 6 7 7 7 7 8 7 7 6 5 6 5 4 4 3 3 3 3 1 1 2 2 3 2 1 1 2
6 6 6 5 4 3 2 2 2 3 3 3 4 5 5 5 6 6 6 7 7 7 7 7 6 7 6 4 5 4 3 3 2 2 2 1 1 2 2 1 1 0 1
7 7 6 5 4 4 3 3 2 2 3 3 3 4 5 5 5 5 5 5 5 5 5 6 6 7 7 7 5 5 4 4 3 3 3 2 2 2 2 2 2 2 1
6 6 5 5 4 4 3 2 2 2 2 3 3 3 4 4 4 5 5 5 6 5 5 5 5 6 7 7 6 6 6 5 4 4 4 3 3 3 3 3 3 2 2
6 5 5 5 4 3 2 1 1 1 1 2 3 4 4 3 6 7 6 5 6 6 6 5 5 6 7 8 7 7 7 6 6 5 4 4 5 4 3 3 3 2 2
5 5 5 4 4 3 2 1 1 0 1 2 3 3 4 5 8 8 8 5 5 6 6 6 5 6 7 6 7 7 5 5 6 5 5 5 4 5 5 4 4 3 3
5 5 5 4 3 3 2 2 1 1 1 2 3 3 3 5 9 9 9 5 5 6 6 7 7 7 7 8 6 6 5 4 4 3 3 3 3 4 6 6 5 3 2
5 5 5 4 4 3 3 3 2 2 2 2 3 3 4 5 9 10 10 5 5 6 6 7 8 8 11 13 8 7 6 4 4 4 4 5 5 5 6 5 5 3 2
6 6 5 5 4 4 4 3 3 3 3 3 3 4 5 5 9 11 11 5 6 6 6 7 11 11 13 15 9 8 8 6 6 5 3 3 3 4 6 5 6 4 3
6 6 6 5 5 4 4 3 3 3 3 4 4 5 5 7 9 12 13 7 7 7 6 7 7 14 15 16 12 8 10 8 7 6 5 4 3 3 3 3 4 4 3
7 7 7 6 5 4 4 4 3 4 4 5 5 6 5 6 8 11 14 13 10 7 7 7 8 14 15 16 12 11 13 10 6 5 5 4 4 4 3 4 5 5 4
7 7 7 7 6 5 4 4 4 4 5 5 5 6 5 5 7 12 15 15 15 8 6 10 12 15 15 12 14 15 11 7 6 5 6 5 4 5 5 4 4 5 5
7 7 7 6 6 5 5 4 4 5 5 5 6 6 5 5 5 6 7 9 12 10 7 10 14 15 11 11 11 9 7 7 7 6 5 4 5 5 4 4 4 3 2
7 7 7 6 6 6 5 5 6 6 7 7 6 6 6 7 9 11 8 7 7 8 6 5 5 6 8 7 6 7 7 7 7 6 6 5 5 5 5 4 4 4 4
6 6 6 6 6 6 6 6 8 9 12 13 12 11 9 11 13 14 15 15 15 14 9 6 8 8 9 9 9 8 8 8 8 7 7 7 7 7 6 4 4 4 4
6 7 6 6 6 6 6 7 8 8 10 12 14 14 14 14 14 14 14 14 16 15 9 7 8 9 9 9 9 9 9 8 8 8 7 7 7 7 6 6 5 5 5
6 7 7 6 6 6 6 7 7 8 8 7 9 13 15 15 14 13 14 11 9 10 7 8 8 8 8 8 9 8 8 8 8 8 8 8 8 7 7 7 7 7 6
6 6 6 6 6 6 6 7 7 8 8 8 7 8 12 12 12 13 11 7 6 6 7 7 7 7 7 8 8 8 8 8 8 8 9 9 9 8 8 8 8 11 9
6 10 9 6 6 7 6 7 7 7 7 8 8 7 6 7 6 6 6 5 6 6 6 7 7 7 8 8 8 8 8 8 9 9 9 9 9 9 9 10 9 8 8
6 8 11 8 6 6 7 7 7 7 8 8 7 9 12 7 6 6 5 5 5 5 5 5 6 7 7 7 7 8 9 8 9 9 9 9 9 9 9 8 9 9 7
6 6 7 7 7 7 7 7 7 7 8 9 8 8 13 8 6 6 5 5 5 4 4 5 5 6 7 7 8 8 9 9 9 9 9 9 9 9 9 9 9 8 8
7 8 8 7 7 10 9 7 7 7 8 8 8 7 7 6 6 6 5 5 4 4 4 4 4 4 4 6 7 8 8 9 9 9 10 10 9 9 9 9 10 9 9
7 8 8 8 8 7 7 7 7 8 8 8 7 7 6 6 6 6 5 4 4 4 3 3 4 5 5 5 5 6 7 7 9 9 11 10 10 9 9 8 9 9 9
8 8 8 8 8 7 7 7 7 7 7 7 7 6 6 6 5 5 4 4 4 3 3 3 2 3 5 5 5 6 8 10 10 9 9 8 9 9 9 9 8 8 8
8 8 8 7 7 7 7 7 7 7 6 6 6 6 6 5 5 4 4 3 3 3 2 1 1 1 2 3 5 6 8 10 11 12 9 7 8 8 9 8 9 8 8
Wind_Direction
49 64 89 92 91 99 126 157 162 158 159 170 176 181 184 181 178 183 186 180 182 181 179 181 181 163 159 158 153 160 175 172 207 224 93 115 128 132 122 112 110 116 117
41 49 59 69 74 82 99 116 132 150 162 168 168 177 180 177 178 183 185 185 186 186 186 177 176 165 163 162 160 172 186 184 188 209 181 148 142 143 136 133 124 128 131
39 46 48 49 58 65 77 96 113 138 153 159 167 179 182 181 184 185 183 183 184 183 179 176 175 169 174 170 169 176 181 179 177 187 184 152 143 136 131 143 175 234 177
35 42 43 38 41 47 57 76 99 126 146 158 173 178 177 176 178 176 173 173 172 169 166 169 174 177 180 175 176 179 174 176 179 190 190 179 178 162 163 191 210 207 216
33 35 32 29 34 39 42 51 84 120 145 157 165 172 173 171 176 172 168 170 170 163 158 161 165 166 169 174 177 178 175 179 185 196 197 184 190 186 203 193 198 187 209
26 25 22 25 27 28 26 31 68 110 144 164 179 178 180 184 178 179 174 172 172 172 171 165 159 158 170 176 173 173 174 182 190 191 195 202 208 201 184 181 168 164 227
20 17 14 13 9 0 356 0 349 234 197 198 198 192 194 189 186 187 186 175 176 177 176 173 176 180 175 169 176 176 180 189 187 180 194 206 200 190 172 177 183 185 205
11 10 3 356 346 337 329 311 291 272 238 228 220 213 207 202 195 193 189 180 179 183 183 182 183 179 181 174 173 174 178 182 184 181 184 188 175 166 169 174 175 146 99
4 357 346 335 321 307 294 283 276 264 254 242 232 222 220 216 205 199 190 182 191 196 193 190 187 187 193 189 179 177 178 187 178 160 152 152 150 155 154 136 143 146 180
350 338 328 317 306 293 281 273 267 259 254 246 245 234 228 227 215 209 199 195 200 201 200 201 201 198 199 194 183 180 190 194 171 163 162 165 161 166 163 162 167 165 163
330 325 320 309 295 285 278 271 266 261 255 250 252 247 236 230 225 221 214 208 206 203 204 205 206 205 203 201 196 192 201 184 169 169 174 176 164 155 145 136 148 160 163
327 321 316 310 302 298 285 275 264 256 254 254 253 254 245 233 227 226 224 223 217 210 209 205 203 205 205 205 204 202 200 182 162 169 176 182 179 176 162 134 117 111 122
323 315 311 310 305 294 279 271 267 258 255 257 252 253 251 244 233 232 231 230 227 223 213 205 202 203 204 206 208 205 197 178 170 182 190 193 185 168 144 125 108 105 93
315 311 307 305 300 293 282 269 263 262 261 261 259 260 260 250 241 231 230 234 231 229 221 211 205 202 198 198 202 205 189 181 182 188 187 178 158 152 155 153 153 155 146
312 310 308 304 301 297 286 273 269 260 262 267 261 256 257 257 249 241 239 234 227 221 205 193 193 189 194 194 193 191 185 185 196 181 178 173 170 169 174 166 161 164 174
312 312 309 305 302 300 298 295 281 276 282 279 274 270 265 263 264 254 248 244 238 227 215 207 205 201 201 200 199 196 193 195 194 187 182 181 180 180 179 172 170 177 189
304 305 305 304 302 300 298 297 299 298 287 283 283 280 275 275 271 262 253 247 240 229 225 212 210 206 203 201 199 198 197 194 188 187 188 186 181 180 179 182 184 188 199
302 301 302 300 300 298 296 295 294 295 300 297 290 285 282 279 275 268 258 249 239 227 220 214 213 209 203 200 201 200 194 187 188 192 191 189 186 185 188 191 193 196 199
302 299 298 298 298 297 295 294 292 291 291 294 297 296 291 287 281 271 262 245 235 230 223 217 211 205 202 200 199 197 193 192 190 192 195 194 192 192 198 199 198 204 202
298 298 300 297 295 295 293 293 294 293 293 294 294 295 296 292 282 273 256 247 240 235 227 221 212 204 200 198 197 196 195 195 194 196 197 197 196 198 202 200 200 202 205
298 300 302 299 290 289 290 291 291 292 291 292 292 294 297 292 284 278 270 258 251 241 230 223 216 206 201 196 196 197 196 196 196 196 197 197 197 200 201 201 202 202 200
297 296 296 295 294 293 292 288 289 289 289 290 292 295 299 297 288 283 277 272 263 249 235 226 223 214 203 197 196 197 199 198 196 195 196 197 198 199 198 199 200 199 197
298 298 297 294 292 295 297 292 288 288 289 289 290 292 293 290 287 285 282 278 273 263 246 230 225 219 207 198 195 196 199 200 197 193 193 196 197 197 196 199 198 195 198
300 298 297 296 294 291 292 294 292 291 292 293 291 291 292 290 289 288 288 286 279 271 258 240 223 215 205 198 196 199 202 198 192 191 190 192 193 194 194 195 195 197 197
300 298 296 294 294 293 293 294 294 295 296 297 298 297 296 295 292 290 290 290 291 287 278 261 237 219 209 203 198 199 202 198 193 190 188 190 190 189 190 191 192 191 194
300 298 296 293 291 293 295 296 297 298 300 301 300 299 299 299 296 293 292 292 293 295 297 290 278 239 213 207 201 197 200 201 199 194 187 186 188 189 187 190 190 191 190
Height
1444 1446 1448 1451 1453 1455 1459 1462 1465 1467 1469 1471 1473 1476 1478 1479 1481 1484 1486 1488 1489 1492 1494 1496 1498 1498 1499 1500 1502 1503 1503 1504 1504 1505 1504 1504 1504 1504 1504 1504 1503 1503 1503
1446 1447 1449 1451 1453 1455 1458 1460 1462 1464 1465 1467 1469 1471 1473 1474 1476 1478 1480 1483 1485 1486 1488 1490 1491 1492 1493 1494 1495 1496 1497 1498 1499 1499 1499 1500 1500 1500 1500 1500 1499 1499 1499
1448 1449 1451 1452 1454 1455 1457 1458 1459 1461 1462 1463 1465 1467 1468 1469 1471 1473 1475 1477 1479 1481 1483 1484 1485 1487 1487 1489 1489 1490 1491 1492 1493 1493 1494 1495 1495 1495 1495 1495 1496 1496 1496
1450 1450 1451 1453 1454 1455 1456 1456 1457 1458 1459 1460 1461 1463 1464 1466 1467 1469 1470 1472 1474 1476 1477 1479 1480 1481 1482 1483 1484 1485 1485 1486 1487 1488 1489 1489 1490 1490 1490 1491 1491 1492 1492
1451 1451 1452 1453 1453 1454 1454 1454 1455 1456 1456 1457 1458 1459 1460 1461 1463 1464 1466 1467 1469 1470 1472 1473 1475 1476 1477 1477 1478 1479 1480 1480 1481 1482 1483 1484 1484 1485 1486 1486 1487 1487 1487
1452 1452 1452 1452 1452 1452 1452 1452 1452 1452 1453 1453 1454 1455 1456 1457 1459 1460 1461 1462 1464 1465 1466 1467 1469 1470 1471 1472 1472 1473 1474 1475 1476 1476 1477 1478 1479 1481 1481 1482 1482 1483 1483
1452 1452 1452 1451 1450 1450 1449 1449 1449 1449 1449 1449 1450 1451 1452 1453 1454 1455 1456 1457 1458 1459 1460 1462 1463 1464 1465 1466 1467 1467 1469 1470 1471 1472 1472 1473 1475 1476 1477 1478 1478 1479 1479
1452 1451 1450 1449 1448 1448 1447 1446 1446 1446 1445 1445 1446 1446 1447 1448 1449 1450 1451 1452 1452 1453 1454 1456 1457 1458 1459 1460 1461 1462 1463 1464 1465 1466 1467 1468 1470 1471 1472 1473 1474 1475 1475
1451 1449 1448 1447 1446 1445 1444 1443 1443 1442 1441 1441 1441 1441 1442 1443 1444 1444 1445 1445 1446 1447 1448 1450 1451 1452 1453 1455 1455 1456 1457 1459 1460 1461 1462 1463 1465 1466 1468 1469 1470 1470 1471
1449 1447 1446 1444 1443 1442 1441 1440 1439 1438 1437 1437 1436 1437 1437 1437 1438 1438 1439 1439 1440 1441 1442 1443 1444 1446 1447 1448 1449 1450 1452 1454 1455 1456 1457 1458 1460 1461 1462 1464 1465 1466 1466
1446 1444 1443 1441 1439 1438 1436 1435 1434 1433 1432 1432 1431 1431 1431 1431 1431 1432 1432 1433 1433 1434 1436 1437 1438 1439 1441 1442 1443 1445 1446 1448 1450 1451 1452 1454 1455 1456 1457 1459 1460 1461 1463
1443 1441 1439 1437 1435 1434 1432 1431 1430 1429 1427 1426 1425 1425 1425 1425 1425 1425 1425 1426 1427 1428 1429 1430 1432 1433 1434 1436 1437 1439 1441 1442 1444 1446 1447 1448 1450 1452 1453 1454 1456 1457 1459
1440 1437 1435 1433 1432 1430 1428 1426 1425 1424 1423 1421 1420 1419 1418 1419 1419 1419 1419 1420 1420 1421 1422 1423 1425 1426 1428 1430 1431 1433 1435 1437 1438 1440 1442 1444 1446 1447 1449 1450 1451 1453 1455
1436 1434 1431 1429 1427 1425 1423 1422 1421 1419 1418 1416 1415 1414 1413 1412 1412 1412 1412 1413 1413 1414 1415 1416 1418 1420 1422 1423 1425 1427 1429 1431 1433 1435 1437 1439 1441 1442 1444 1445 1447 1449 1451
1432 1430 1427 1425 1422 1420 1418 1417 1415 1414 1413 1411 1410 1408 1407 1405 1405 1406 1406 1406 1406 1407 1408 1410 1411 1413 1415 1417 1419 1421 1423 1425 1427 1429 1431 1433 1435 1437 1439 1441 1443 1445 1447
1428 1425 1422 1420 1417 1415 1413 1411 1409 1409 1407 1405 1404 1403 1401 1400 1399 1399 1399 1399 1400 1401 1402 1402 1404 1406 1408 1410 1412 1414 1416 1419 1421 1423 1425 1428 1430 1432 1434 1436 1438 1441 1443
1424 1421 1418 1415 1413 1411 1408 1406 1403 1401 1400 1399 1397 1396 1395 1394 1393 1392 1392 1393 1393 1394 1395 1395 1397 1399 1401 1403 1405 1408 1410 1413 1415 1417 1420 1422 1425 1427 1429 1432 1434 1436 1438
1420 1417 1414 1411 1409 1406 1404 1401 1399 1396 1393 1391 1391 1389 1388 1387 1386 1386 1386 1386 1386 1387 1387 1388 1390 1392 1394 1397 1399 1401 1404 1406 1409 1411 1414 1417 1419 1422 1424 1426 1429 1431 1434
1416 1413 1410 1407 1404 1402 1399 1397 1394 1392 1389 1386 1384 1383 1382 1381 1380 1380 1379 1379 1379 1380 1381 1382 1384 1386 1388 1390 1393 1395 1398 1400 1403 1406 1408 1411 1414 1416 1419 1421 1424 1426 1428
1411 1408 1406 1403 1400 1397 1395 1392 1390 1387 1385 1382 1380 1378 1377 1376 1374 1373 1373 1373 1373 1374 1375 1376 1377 1379 1382 1384 1387 1389 1392 1394 1397 1400 1402 1405 1408 1410 1413 1416 1418 1420 1422
1406 1403 1401 1398 1396 1393 1391 1388 1386 1383 1381 1378 1376 1374 1373 1372 1370 1368 1368 1367 1367 1368 1369 1370 1371 1373 1375 1378 1380 1383 1385 1388 1391 1394 1396 1399 1402 1405 1407 1410 1412 1415 1417
1401 1399 1396 1394 1391 1389 1386 1384 1381 1379 1376 1374 1371 1369 1368 1366 1365 1363 1362 1362 1362 1362 1363 1364 1365 1367 1369 1372 1374 1377 1379 1382 1384 1388 1391 1393 1396 1399 1401 1404 1406 1408 1411
1397 1394 1391 1389 1387 1384 1382 1379 1377 1375 1372 1370 1367 1365 1363 1361 1360 1358 1357 1356 1356 1357 1357 1358 1360 1361 1363 1366 1368 1371 1373 1375 1379 1382 1385 1387 1390 1392 1395 1397 1400 1402 1404
1392 1389 1387 1384 1382 1380 1377 1375 1373 1371 1368 1365 1363 1361 1359 1357 1355 1354 1353 1352 1351 1352 1352 1353 1354 1356 1358 1360 1362 1365 1367 1370 1373 1376 1379 1381 1384 1386 1389 1391 1393 1396 1398
1388 1385 1382 1380 1378 1376 1373 1371 1369 1367 1364 1362 1359 1357 1355 1353 1352 1350 1349 1348 1347 1347 1348 1349 1350 1351 1353 1355 1357 1359 1362 1364 1367 1370 1372 1375 1377 1380 1382 1385 1387 1390 1392
1384 1381 1378 1376 1374 1371 1369 1367 1365 1363 1360 1358 1356 1354 1352 1350 1348 1347 1346 1345 1344 1344 1344 1345 1346 1347 1348 1350 1352 1354 1357 1359 1361 1364 1367 1369 1371 1374 1376 1379 1381 1384 1386